Regional Weather Roundup
Issued by NWS

Home | Current Version | Previous Version | Graphics & Text | Print | Product List | Glossary On
Versions: 1 2 3 4 5 6 7 8 9 10 11 12 13 14 15 16 17 18 19 20 21 22 23 24 25 26 27 28 29 30 31 32 33 34 35 36 37 38 39 40 41 42 43 44 45 46 47
000
ASUS45 KSLC 250910
RWRUT

UTAH REGIONAL WEATHER ROUNDUP
NATIONAL WEATHER SERVICE SALT LAKE CITY UT
300 AM MDT FRI JUL 25 2014

UTZ001>011-023>025-251000-

NORTHERN UTAH

CITY           SKY/WX    TMP DP  RH WIND       PRES   REMARKS
HILL AFB       CLEAR     69  38  32 E12       30.03S
LOGAN          CLEAR     56  41  57 CALM      30.06F
OGDEN          CLEAR     64  38  38 NW6       30.01R
PROVO AIRPORT  CLEAR     64  48  55 SE7       30.03R
SALT LAKE CITY PTCLDY    67  43  41 N9        30.00R
VERNAL         PTCLDY    66  52  60 W6        30.09S
WENDOVER       CLEAR     72  37  28 W6        30.03R
HEBER CITY     CLEAR     54  45  71 CALM      30.11R
WEST JORDAN    CLEAR     68  45  42 W6        30.04R

$$

UTZ012>022-026-027-251000-

SOUTHERN UTAH

CITY           SKY/WX    TMP DP  RH WIND       PRES   REMARKS
BRYCE CANYON   MOCLDY    57  45  64 CALM      30.33S
CEDAR CITY     CLEAR     72  46  39 SW9       30.13S
MILFORD        CLEAR     77  48  35 S16       30.06S
MOAB/CYNLANDS  CLEAR     80  49  33 SE8       30.04S
PRICE          PTCLDY    76  45  33 E10       30.13S
ST GEORGE      SUNNY     86  50  28 E8        29.94S
KANAB            N/A     73  50  43 CALM      30.15S

$$

REGIONAL REPORTS     COLORADO/ARIZONA

CITY           SKY/WX    TMP DP  RH WIND       PRES   REMARKS
CRAIG, CO      LGT RAIN  54  54 100 SE7       30.22F
GRAND JUNCTION PTCLDY    75  51  43 SE15      30.11S
RIFLE          PTCLDY    64  49  57 CALM      30.17F
MONTROSE       MOCLDY    65  52  62 SE7       30.22S
CORTEZ         MOCLDY    69  52  54 S5        30.21S
PAGE, AZ       MOCLDY    86  48  26 CALM      30.06R
GRAND CANYON   LGT RAIN  59  55  87 CALM      30.27F
KINGMAN        MOCLDY    81  52  36 SE10      29.99S
FLAGSTAFF      PTCLDY    52  49  89 CALM      30.32F

$$

REGIONAL REPORTS    NEVADA/IDAHO/WYOMING

CITY           SKY/WX    TMP DP  RH WIND       PRES   REMARKS
LAS VEGAS, NV  MOCLDY    96  51  21 S16       29.79F HX  93
ELY            CLEAR     52  22  30 SE5       30.15S
ELKO           CLEAR     54  37  52 W3        30.11R
POCATELLO, ID  CLEAR     52  26  36 SW9       30.12R
BURLEY         PTCLDY    51  33  50 SW5       30.09S
EVANSTON, WY   PTCLDY    60  36  40 N7        30.22S
ROCK SPRINGS   CLEAR     64  24  21 S6        30.19S

$$



USA.gov is the U.S. government's official web portal to all federal, state and local government web resources and services.